www.pogodaiklimat.ru

Погода и климат >> Архив погоды >> Финляндия >> Аэропорт Ивало


ПОГОДА в Аэропорту Ивало

  • Прогноз погоды в Аэропорту Ивало
  • Монитор погоды в Аэропорту Ивало

АРХИВ ПОГОДЫ в Аэропорту Ивало

Время (UTC), дата Ветер
(напр.,м/с)
 
Видим.   Явления Облачность Т
(С)
Тd
(С)
f
(%)
Тe
(С)
Тes
(С)
Комфортность P
(гПа)
Po
(гПа)
Тmin
(С)
Tmax
(С)
R
(мм)
R24
(мм)
S
(см)
22 10.06 С 6 6000 м слаб. снег 10/0 300 м
[]
+1.0 -0.2 92 -5 -5 1016.9 998.3
23 10.06 С 5 18 км слаб. снег 10/10 300 м
[]
+1.0 -0.2 92 -5 -5 1018.0 999.4
00 11.06 С 4 15 км слаб. снег 10/0 300 м
[]
+0.9 -0.2 92 -4 -4 1019.2 1000.6
01 11.06 С 5 14 км слаб. снег 10/0 300 м
[]
+0.9 0.0 94 -5 -5 1020.0 1001.3
02 11.06 С 5 12 км слаб. снег 10/10 300 м
[]
+0.9 -0.2 92 -5 -5 1020.7 1002.1
03 11.06 С 5 12 км слаб. снег 10/0 600 м
[]
+1.0 -0.2 92 -5 -5 1021.6 1002.9
04 11.06 С 5 25 км слаб. дождь 10/10 300 м
[]
+1.5 +0.4 92 -4 -4 1022.5 1003.8
05 11.06 С 6 35 км слаб. дождь 10/10 300 м
[]
+1.6 -0.1 88 -5 -5 1023.3 1004.7
06 11.06 С 5 26 км слаб. дождь 10/10 300 м
[]
+1.8 -0.1 87 -4 -4 1024.5 1005.8 +0.8 +2.4
07 11.06 С 5 8000 м слаб. дождь со снегом 9/9 300 м
[]
+1.7 +0.1 89 -4 -4 1025.2 1006.5
08 11.06 С 5 50 км в посл. час осадки 9/9 600 м
[]
+3.3 -0.2 78 -2 -1 1025.8 1007.2
09 11.06 С 5 35 км слаб. ливневой дождь 9/0 600 м
[]
+3.2 +0.1 80 -2 +1 1026.9 1008.3
10 11.06 СЗ 5 >70 км осадки 9/0 600 м
[]
+1.9 +0.3 89 -4 -3 1027.6 1008.9
11 11.06 СВ 7 50 км 9/9 600 м
[]
+4.2 +1.1 80 -2 -1 1027.6 1009.1
12 11.06 >70 км в посл. час дождь 6/6 600 м
[]
+5.9 -0.8 62 1027.8 1009.4
13 11.06 С 5 50 км в посл. час дождь 9/9 1000 м
[]
+6.1 -1.1 60 +2 +3 1027.8 1009.4
14 11.06 СЗ 4 50 км 9/9 1000 м
[]
+6.2 -2.1 55 +3 +3 1027.8 1009.4
15 11.06 СЗ 4 >70 км 9/0 1500 м
[]
+6.2 +0.6 67 +3 +5 1028.3 1009.8
16 11.06 СЗ 3 50 км слаб. ливневой дождь 10/10 600 м
[]
+4.7 +1.5 80 +1 +1 1028.8 1010.3
17 11.06 СЗ 4 50 км 10/10 300 м
[]
+5.5 +0.1 68 +2 +2 1028.9 1010.4
18 11.06 СЗ 2 50 км 10/10 1500 м
[]
+5.4 +0.3 70 +3 +3 1029.2 1010.7 +1.7 +6.5
19 11.06 С 2 >70 км 10/10 600 м
[]
+5.1 +0.2 71 +3 +3 1029.3 1010.8
20 11.06 СЗ 2 50 км 10/10 1500 м
[]
+4.8 +0.3 73 +2 +2 1029.5 1010.9
21 11.06 СЗ 1 >70 км 10/0 1500 м
[]
+4.4 +0.9 78 +3 +3 1029.6 1011.0
22 11.06 З 2 50 км 10/10 1500 м
[]
+4.3 +0.6 77 +2 +2 1029.7 1011.1
23 11.06 З 3 >70 км 10/0 1500 м
[]
+4.2 +1.1 80 +1 +1 1029.7 1011.2
00 12.06 З 4 >70 км 10/0 1500 м
[]
+4.3 +1.4 81 0 0 1029.8 1011.2
01 12.06 З 3 50 км 10/10 1500 м
[]
+4.4 +1.4 81 +1 +1 1029.9 1011.3
02 12.06 СЗ 4 50 км 10/10 1500 м
[]
+4.5 +1.4 80 0 0 1030.1 1011.5
03 12.06 СЗ 3 >70 км 10/0 1000 м
[]
+4.8 +1.1 77 +1 +2 1030.2 1011.7
04 12.06 СЗ 3 50 км 10/10 300 м
[]
+5.1 +0.6 73 +2 +2 1030.3 1011.8
05 12.06 С 3 50 км 9/9 600 м
[]
+6.0 -0.8 62 +3 +4 1030.1 1011.7
06 12.06 СЗ 4 50 км 9/9 1000 м
[]
+5.8 0.0 66 +2 +3 1030.4 1011.9 +4.2 +6.4
07 12.06 СВ 2 50 км в посл. час дождь 8/8 1000 м
[]
+6.7 -0.6 60 +5 +6 1030.5 1012.0
08 12.06 З 3 50 км слаб. дождь 10/10 600 м
[]
+6.7 -0.3 61 +4 +4 1030.5 1012.1
09 12.06 С 2 >70 км 9/0 1000 м
[]
+7.9 -0.4 56 +6 +12 1030.4 1012.0
10 12.06 З 2 50 км 8/8 1000 м
[]
+8.7 -1.9 47 +7 +10 1030.5 1012.2
11 12.06 СЗ 2 50 км 10/10 1000 м
[]
+8.9 +0.3 55 +8 +8 1030.3 1012.0
12 12.06 СЗ 2 >70 км 10/0 1000 м
[]
+9.9 -0.7 48 +9 +14 1029.9 1011.7
13 12.06 СЗ 2 50 км 8/8 1000 м
[]
+10.6 0.0 48 +10 +11 1029.5 1011.3
14 12.06 С 2 50 км 8/8 1000 м
[]
+11.1 -1.1 43 +10 +12 1029.0 1010.9
15 12.06 В 1 >70 км 5/0
[]
+11.8 -0.7 42 +12 +16 1028.8 1010.7
16 12.06 СВ 2 >70 км 1/0
[]
+11.1 +0.4 48 +10 +14 1028.6 1010.5
17 12.06 СВ 2 >70 км ясно +11.9 +1.4 49 +11 +13 1028.2 1010.2
18 12.06 СВ 4 50 км 3/3
[]
+10.6 +1.7 54 +8 +9 1028.3 1010.2 +5.3 +12.1
19 12.06 СВ 4 50 км 1/1
[]
+10.2 +1.5 55 +8 +8 1028.3 1010.1
20 12.06 СВ 3 >70 км ясно +9.5 +2.9 63 +7 +8 1028.4 1010.2
21 12.06 СВ 3 >70 км 1/0
[]
+7.7 +3.0 72 +5 +5 1028.8 1010.4
22 12.06 СВ 1 50 км ясно +7.2 +3.6 78 +6 +6 1028.9 1010.5
23 12.06 СВ 1 50 км ясно +6.4 +4.4 87 +5 +5 1028.8 1010.4
00 13.06 штиль 0 >70 км ясно +5.9 +4.2 89 +5 +5 1028.6 1010.2
01 13.06 штиль 0 >70 км 6/0
[]
+5.6 +4.3 91 +5 +5 1028.4 1010.0
02 13.06 З 1 >70 км ясно +5.3 +4.2 93 +4 +5 1028.3 1009.8
03 13.06 З 1 >70 км ясно +6.4 +4.0 85 +5 +7 1027.9 1009.5
04 13.06 ЮЗ 1 50 км ясно +8.1 +4.3 77 +7 +11 1027.5 1009.2
05 13.06 З 1 50 км 3/0
[]
+10.8 +3.6 61 +11 +15 1027.1 1009.0
06 13.06 ЮЗ 4 50 км ясно +13.3 +2.7 49 +12 +16 1026.3 1008.4 +5.1 +13.3
07 13.06 ЮЗ 4 50 км ясно +14.7 +2.0 42 +14 +19 1025.9 1008.1
08 13.06 ЮЗ 5 >70 км 5/0 1500 м
[]
+15.1 +1.2 39 +14 +16 1025.5 1007.6
09 13.06 ЮЗ 5 60 км 6/0 2000 м
[]
+15.8 +0.9 36 +15 +19 1025.3 1007.5
10 13.06 ЮЗ 5 50 км 10/10 2000 м
[]
+15.9 +0.4 35 +15 +15 1025.2 1007.4
11 13.06 ЮЗ 4 50 км 10/10
[]
+16.4 +0.9 35 +16 +16 1024.8 1007.1
12 13.06 З 4 60 км 4/0
[]
+16.5 +0.6 34 +16 +21 1024.5 1006.8
13 13.06 Ю 4 50 км 6/6
[]
+16.7 +0.9 34 +16 +19 1024.1 1006.4
14 13.06 З 4 50 км ясно +16.5 0.0 33 +16 +21 1023.7 1006.0
15 13.06 ЮЗ 5 >70 км ясно +16.9 -0.1 32 +16 +19 1023.1 1005.4
16 13.06 З 3 50 км ясно +17.1 +0.4 32 +17 +20 1022.6 1004.9
17 13.06 Ю 3 >70 км 9/9 2000 м
[]
+16.7 +0.1 32 +17 +17 1022.4 1004.7
18 13.06 ЮЗ 3 50 км 10/10
[]
+16.0 +2.0 39 +16 +16 1021.9 1004.2 +13.3 +17.4
19 13.06 ЮЗ 3 50 км 10/10 2000 м
[]
+15.3 +2.7 43 +15 +15 1021.8 1004.0
20 13.06 ЮЗ 3 50 км 10/10
[]
+14.2 +3.1 47 +13 +13 1021.7 1003.9
21 13.06 ЮЗ 2 >70 км 8/0
[]
+12.5 +2.4 50 +12 +12 1021.8 1003.9
22 13.06 штиль 0 50 км 6/6
[]
+12.5 +2.5 50 +12 +12 1022.0 1004.1
23 13.06 СЗ 1 50 км 9/9
[]
+10.1 +4.5 68 +10 +10 1022.2 1004.1
00 14.06 СВ 3 >70 км 9/0
[]
+10.5 +5.3 70 +9 +9 1022.1 1004.0
01 14.06 СВ 3 50 км 9/9
[]
+10.3 +4.7 68 +8 +8 1021.7 1003.7
02 14.06 СВ 4 50 км 3/3 2000 м
[]
+9.6 +4.3 70 +7 +7 1021.6 1003.6
03 14.06 С 4 65 км ясно +9.3 +4.1 70 +7 +8 1021.2 1003.2
04 14.06 СВ 4 50 км ясно +9.5 +4.2 69 +7 +9 1021.0 1002.9
05 14.06 СВ 3 >70 км ясно +10.2 +3.9 65 +8 +12 1020.5 1002.4
06 14.06 СВ 2 50 км ясно +11.5 +4.0 60 +11 +17 1019.9 1002.0 +9.2 +16.0
07 14.06 Ю 1 65 км ясно +12.6 +4.2 57 +13 +22 1019.6 1001.7
08 14.06 В 2 50 км 8/8
[]
+13.5 +4.6 55 +13 +15 1018.8 1001.0
09 14.06 СВ 2 >70 км 5/4 1000 м
[]
+15.3 +3.7 46 +15 +21 1017.9 1000.2
10 14.06 СЗ 3 50 км ясно +16.4 +2.2 38 +16 +25 1017.4 999.9
11 14.06 З 5 50 км 3/3
[]
+17.4 +0.9 33 +17 +21 1016.6 999.1
12 14.06 СЗ 5 >70 км ясно +17.9 +0.4 31 +18 +23 1016.1 998.7
13 14.06 С 6 50 км ясно +17.7 +1.4 33 +17 +20 1015.9 998.5
14 14.06 СВ 6 50 км ясно +17.7 +1.0 32 +17 +20 1015.7 998.2
15 14.06 СВ 7 65 км ясно +15.9 +0.9 36 +15 +16 1015.7 998.1
16 14.06 С 8 50 км ясно +14.6 +0.7 39 +13 +13 1016.3 998.6
17 14.06 С 7 50 км ясно +12.9 +0.8 44 +11 +11 1016.7 998.9
18 14.06 С 7 50 км ясно +10.8 +1.3 52 +8 +8 1017.3 999.4 +10.8 +18.4
19 14.06 С 7 50 км ясно +9.5 +1.7 58 +6 +6 1017.8 999.7
20 14.06 С 5 50 км ясно +7.8 +1.8 66 +4 +4 1018.2 1000.0
21 14.06 СВ 3 >70 км 1/0 600 м
[]
+6.5 +2.0 73 +4 +4 1018.8 1000.6
22 14.06 С 1 >70 км 5/0 300 м
[]
+5.8 +2.2 78 +5 +5 1019.1 1000.8
23 14.06 СЗ 1 50 км 9/9 600 м
[]
+5.8 +2.3 78 +5 +5 1019.2 1000.9
00 15.06 >70 км 4/4 600 м
[]
+5.4 +1.9 78 1019.1 1000.8
01 15.06 С 2 50 км 6/6 600 м
[]
+4.8 +2.1 83 +2 +2 1019.1 1000.8
02 15.06 С 3 50 км 9/9 600 м
[]
+5.6 +2.2 79 +2 +2 1018.6 1000.4
03 15.06 С 2 >70 км 9/0 300 м
[]
+5.8 +2.0 77 +3 +4 1019.0 1000.7
04 15.06 С 2 50 км 9/9 300 м
[]
+5.8 +1.7 75 +4 +4 1018.8 1000.6
05 15.06 СВ 2 50 км ясно +7.1 +2.1 70 +5 +10 1018.3 1000.1
06 15.06 ЮВ 1 50 км 1/1 600 м
[]
+7.8 +1.9 66 +7 +14 1018.0 999.9 +4.7 +10.8
07 15.06 В 1 50 км ясно +9.8 +2.3 60 +10 +19 1017.6 999.6
08 15.06 СВ 1 50 км ясно +12.4 +3.2 53 +13 +24 опасность
простуды
1016.9 999.1
09 15.06 Ю 2 65 км ясно +13.5 +2.9 49 +13 +24 опасность
простуды
1016.2 998.4
10 15.06 ЮЗ 2 50 км ясно +15.5 +2.9 43 +16 +27 1015.3 997.7
11 15.06 З 4 50 км ясно +16.9 +0.8 34 +17 +24 1014.7 997.2
12 15.06 СЗ 3 >70 км ясно +18.3 +0.6 30 +19 +27 1014.0 996.6
13 15.06 З 5 50 км ясно +18.7 +0.7 30 +19 +23 1013.4 996.0
14 15.06 З 5 65 км ясно +19.3 +0.3 28 +19 +23 1012.8 995.4
15 15.06 З 4 >70 км ясно +19.8 +0.6 28 +20 +23 1012.0 994.7
16 15.06 СЗ 5 50 км ясно +20.0 -0.3 26 +20 +22 1011.7 994.4
17 15.06 СЗ 5 50 км ясно +20.2 -0.6 25 +20 +21 1011.2 994.0
18 15.06 СЗ 4 50 км ясно +19.7 -3.0 21 +20 +20 1010.6 993.3 +7.8 +20.6
19 15.06 СЗ 4 50 км ясно +18.9 -3.2 22 +19 +19 1010.4 993.1
20 15.06 С 3 50 км ясно +17.5 -0.4 30 +18 +18 1010.3 992.9
21 15.06 СЗ 4 >70 км ясно +14.9 +0.1 36 +14 +14 1010.7 993.1
22 15.06 З 2 50 км ясно +13.9 +1.6 43 +14 +14 1010.9 993.3
23 15.06 СЗ 4 >70 км ясно +12.7 0.0 42 +11 +11 1011.3 993.6
00 16.06 СЗ 4 >70 км ясно +11.7 +0.5 46 +10 +10 1011.2 993.5
01 16.06 СЗ 3 50 км ясно +11.4 +0.9 48 +10 +10 1011.3 993.6
02 16.06 СЗ 5 50 км ясно +11.4 +1.4 50 +9 +10 1011.4 993.6
03 16.06 С 5 >70 км ясно +11.0 +1.6 52 +9 +10 1011.8 993.9
04 16.06 СВ 5 50 км ясно +9.4 +3.5 67 +6 +8 1012.3 994.3
05 16.06 СВ 5 65 км ясно +9.8 +2.9 62 +7 +9 1012.4 994.4
06 16.06 С 4 50 км 4/4 600 м
[]
+10.0 +2.2 58 +8 +10 1012.7 994.8 +9.1 +19.7
07 16.06 С 3 65 км 5/0 600 м
[]
+10.7 +2.3 56 +9 +12 1012.8 994.9
08 16.06 С 5 50 км ясно +11.7 +2.3 52 +9 +14 1012.8 995.0
09 16.06 С 5 65 км ясно +12.3 +1.5 48 +10 +16 1012.8 995.1
10 16.06 С 3 50 км ясно +13.7 +1.7 44 +13 +22 1012.4 994.8
11 16.06 СЗ 3 50 км ясно +14.4 +0.7 39 +14 +23 1012.0 994.4
12 16.06 С 3 >70 км ясно +15.6 +0.7 36 +15 +24 1011.6 994.1
13 16.06 С 6 50 км ясно +16.0 +0.7 35 +15 +18 1011.3 993.8
14 16.06 С 5 >70 км 1/0 1500 м
[]
+16.5 +0.9 35 +16 +19 1011.2 993.7
15 16.06 С 5 60 км ясно +17.1 +0.6 33 +17 +19 1011.1 993.6
16 16.06 С 5 50 км ясно +16.3 +0.7 35 +15 +17 1011.2 993.8
17 16.06 С 5 50 км ясно +15.4 -0.3 34 +14 +15 1011.2 993.7
18 16.06 СВ 4 50 км ясно +14.2 0.0 38 +13 +14 1011.5 993.9 +10.0 +17.1
19 16.06 СВ 4 50 км ясно +13.6 +0.3 40 +12 +13 1011.7 994.0
20 16.06 С 2 >70 км ясно +12.3 +0.1 43 +12 +12 1011.8 994.0
21 16.06 СЗ 2 >70 км ясно +10.2 +1.1 53 +9 +9 1011.6 993.7
22 16.06 ЮВ 2 50 км ясно +10.4 -0.8 46 +9 +9 1011.5 993.6
23 16.06 С 2 50 км ясно +7.0 +0.9 65 +5 +5 1011.6 993.6
00 17.06 З 1 >70 км ясно +5.6 +2.8 82 +4 +5 1011.7 993.6
01 17.06 ЮЗ 3 50 км ясно +5.6 +1.8 77 +2 +3 1011.6 993.5
02 17.06 ЮЗ 2 50 км ясно +6.3 +1.4 71 +4 +5 1011.6 993.5
03 17.06 ЮЗ 1 >70 км ясно +8.3 +1.4 62 +8 +10 1011.2 993.2
04 17.06 Ю 1 50 км ясно +11.5 +1.1 49 +12 +15 1010.8 993.0
05 17.06 С 1 >70 км ясно +11.3 +0.3 47 +12 +17 1010.2 992.4
06 17.06 ЮЗ 2 50 км ясно +12.4 -1.0 39 +12 +18 1009.6 991.9 +5.3 +14.3
07 17.06 СВ 2 50 км ясно +13.7 -2.4 33 +14 +21 1009.2 991.6
08 17.06 З 2 50 км ясно +14.1 -2.5 32 +14 +23 1008.8 991.2
09 17.06 З 3 55 км ясно +15.2 -2.3 30 +15 +24 1008.3 990.8
10 17.06 СЗ 3 50 км ясно +16.7 -1.3 29 +17 +26 1007.9 990.5
11 17.06 СЗ 2 50 км ясно +16.9 -1.4 29 +17 +28 1007.6 990.3
12 17.06 СЗ 3 >70 км ясно +18.2 -1.0 27 +18 +27 1007.1 989.8
13 17.06 С 2 50 км ясно +18.4 -1.5 26 +19 +27 1007.0 989.7
14 17.06 В 6 >70 км ясно +18.3 -0.2 29 +18 +21 1006.9 989.6
15 17.06 СВ 6 >70 км ясно +17.5 -0.3 30 +17 +19 1007.2 989.8
16 17.06 С 6 50 км ясно +16.7 +0.3 33 +16 +17 1007.2 989.9
17 17.06 СВ 6 50 км ясно +16.0 +0.9 36 +15 +16 1007.5 990.0
18 17.06 С 6 50 км ясно +14.7 +1.3 40 +13 +14 1007.9 990.4 +12.3 +18.7
19 17.06 СВ 5 65 км ясно +13.6 +0.6 41 +12 +12 1008.2 990.6
20 17.06 С 4 50 км ясно +11.9 +1.8 50 +10 +10 1008.7 990.9

 

Местоположение метеостанции Аэропорт Ивало (Финляндия): широта 68.61 долгота 27.41 высота над уровнем моря 147 м.

В архиве по умолчанию представлена погода в Аэропорту Ивало за последнюю неделю. Архивные данные за месяц целиком и за предыдущие месяцы, начиная с января 2011 года, Вы можете получить, выбрав интересующий диапазон дат из раскрывающегося списка и нажав кнопку "Ввод!".


*Определитесь, кто Вы:
робот инопланетянин человек

Внимание! Время в таблицах - всемирное. Для получения местного времени необходимо прибавить поправку, которая равна 1 ч.

Смотрите также архив погоды в соседних городах и на ближайших метеорологических станциях:

Погода в Саариселькя (Финляндия) (20 км)
Погода в Саариселькя (Финляндия) (21 км)
Погода в Инари Раджайосеппи (Финляндия) (39 км)
Погода в Неллиме (Финляндия) (45 км)
Погода на Острове Сеиталасса (Финляндия) (51 км)
Погода в Кааманене (Финляндия) (59 км)
Погода в Соданкила Вуотсо (Финляндия) (60 км)
Погода в Верховье Лотты (Мурманская область, Россия) (62 км)
Погода в Янискоски (Мурманская область, Россия) (68 км)
Погода в Инари Анджели (Финляндия) (75 км)

Пояснения к столбцам:

Ветер - указаны скорость ветра в м/с - средняя за 10 мин, порывы в срок и между сроками (в фигурных скобках) и направление, откуда дует ветер: С - северный, СВ - северо-восточный, В - восточный, ЮВ - юго-восточный, Ю - южный, ЮЗ - юго-западный, З - западный, СЗ - северо-западный.
Видимость - горизонтальная дальность видимости в метрах или километрах. При видимости от 1 до 10 км при отсутствии осадков обычно наблюдается дымка, при ухудшении видимости до 1 км и менее - туман. В сухую погоду видимость может ухудшаться дымом, пылью или мглою.
Явления - указаны атмосферные явления, наблюдавшиеся в срок или в последний час перед сроком; фигурными скобками обозначены явления, наблюдавшиеся между сроками (за 1-3 часа до срока); квадратными скобками обозначены град или гололедные отложения с указанием их диаметра в мм.
Облачность - указаны через наклонную черту общая и нижняя облачность в баллах и высота нижней границы облаков в метрах; квадратными скобками обозначены формы облаков: Ci - перистые, Cs - перисто-слоистые, Cc - перисто-кучевые, Ac - высококучевые, As - высокослоистые, Sc - слоисто-кучевые, Ns - слоисто-дождевые, Cu - кучевые, Cb - кучево-дождевые. Подробнее классификацию облаков см. в Атласе облаков (PDF).
T - Температура воздуха - температура, измеренная на высоте 2 м над землей.
Td - Температура точки росы - температура, при понижении до которой содержащийся в воздухе водяной пар достигнет насыщения.
f - Относительная влажность воздуха - влажноcть воздуха, измеренная на высоте 2 м над землей.
Te - Эффективная температура - температура, которую ощущает одетый по сезону человек в тени. Характеристика душности погоды. При расчете учитывается влияние влажности воздуха и скорости ветра на теплоощущения человека.
Tes - Эффективная температура на солнце - температура, которую ощущает человек, с поправкой на солнечный нагрев. Характеристика знойности погоды. Зависит от высоты солнца над горизонтом, облачности и скорости ветра. Ночью, в пасмурную погоду, а также при ветре 12 м/с и более поправка равна нулю.
P - Атмосферное давление - приведенное к уровню моря атмосферное давление.
Po - Атмосферное давление - измеренное на уровне метеостанции атмосферное давление.
Tmin - Минимальная температура - минимум температуры воздуха на высоте 2 м над землей.
Tmax - Максимальная температура - максимум температуры воздуха на высоте 2 м над землей.
R - Количество осадков - Количество выпавших осадков за период времени, мм. При наведении курсора мыши на число - период времени, за который выпало указанное количество осадков.
R24 - Количество осадков - Количество выпавших осадков за 24 часа, мм.
S - Снежный покров - Высота снежного покрова, см. При наведении курсора мыши на число - состояние снежного покрова и степень покрытия местности в баллах.